GW7369 Weather Reports


time (UTC)temp
F
wind
direction
speed
knots
gust
knots
rain 1hr
in
rain 24hr
in
rain mn
in
humidity
%
barometer
mb
20260510163909 74 231 6.1 9.6 0.00 0.02 0.02 63 1019.0
20260510163410 73 206 4.3 10.4 0.00 0.02 0.02 66 1019.0
20260510162910 73 204 7.0 10.4 0.00 0.02 0.02 65 1019.0
20260510162410 74 225 3.5 9.6 0.00 0.02 0.02 60 1019.3
20260510161910 75 252 5.2 8.7 0.00 0.02 0.02 56 1019.3
20260510161410 74 100 0.9 7.8 0.00 0.02 0.02 58 1019.0
20260510160910 73 162 6.1 8.7 0.00 0.02 0.02 60 1019.0
20260510160410 73 196 7.0 8.7 0.00 0.02 0.02 60 1019.0
20260510155910 74 184 4.3 7.8 0.00 0.02 0.02 61 1019.3
20260510155410 73 188 5.2 7.8 0.00 0.02 0.02 61 1019.3
20260510154910 73 185 7.0 7.8 0.00 0.02 0.02 61 1019.0
20260510154409 73 197 3.5 7.8 0.00 0.02 0.02 59 1019.0
20260510153909 72 187 6.1 7.8 0.00 0.02 0.02 61 1019.0
20260510153410 72 233 4.3 7.0 0.00 0.02 0.02 68 1019.0
20260510152910 72 37 0.0 7.0 0.00 0.02 0.02 69 1019.0
20260510152409 72 306 2.6 7.0 0.00 0.02 0.02 71 1019.3
20260510151909 72 268 2.6 5.2 0.00 0.02 0.02 69 1019.0
20260510151409 71 195 0.0 6.1 0.00 0.02 0.02 74 1019.0
20260510150909 71 338 3.5 5.2 0.00 0.02 0.02 77 1019.3
20260510150410 70 289 3.5 5.2 0.00 0.02 0.02 76 1019.0
20260510145910 70 276 2.6 5.2 0.00 0.02 0.02 76 1019.0
20260510145409 71 290 4.3 6.1 0.00 0.02 0.02 79 1018.6
20260510144909 70 292 4.3 6.1 0.00 0.02 0.02 80 1019.0
20260510144409 70 246 2.6 6.1 0.00 0.02 0.02 84 1019.0
20260510143909 69 222 3.5 5.2 0.00 0.02 0.02 84 1019.0
20260510143410 69 303 4.3 5.2 0.00 0.02 0.02 85 1018.6
20260510142910 69 264 1.7 4.3 0.00 0.02 0.02 85 1018.6
20260510142410 69 276 3.5 6.1 0.00 0.02 0.02 87 1019.0
20260510141910 68 271 3.5 6.1 0.00 0.02 0.02 88 1018.6
20260510141410 68 248 2.6 5.2 0.00 0.02 0.02 90 1018.6
20260510140909 68 268 2.6 5.2 0.00 0.02 0.02 90 1019.0
20260510140409 68 336 3.5 5.2 0.00 0.02 0.02 90 1019.0
20260510135910 67 275 2.6 5.2 0.00 0.02 0.02 92 1019.0
20260510135410 67 246 2.6 4.3 0.00 0.02 0.02 92 1018.6
20260510134910 67 250 2.6 4.3 0.00 0.02 0.02 92 1019.0
20260510134410 66 259 2.6 4.3 0.00 0.02 0.02 93 1019.0
20260510133910 66 316 2.6 4.3 0.00 0.02 0.02 94 1018.6
20260510133410 66 263 3.5 4.3 0.00 0.02 0.02 94 1019.0
20260510132909 66 264 1.7 6.1 0.00 0.02 0.02 95 1018.6
20260510132410 66 274 0.9 6.1 0.00 0.01 0.01 95 1018.6
20260510131910 65 331 4.3 6.1 0.00 0.01 0.01 97 1018.6
20260510131409 65 327 2.6 6.1 0.00 0.01 0.01 99 1018.6
20260510130909 64 0.0 5.2 0.00 0.01 0.01 98 1018.6
20260510130410 64 281 3.5 5.2 0.00 0.01 0.01 98 1018.6
20260510125910 64 358 1.7 4.3 0.00 0.01 0.01 99 1018.6
20260510125409 64 348 2.6 4.3 0.00 0.01 0.01 99 1018.6
20260510124909 63 333 2.6 4.3 0.00 0.01 0.01 99 1018.6
20260510124410 63 261 0.9 2.6 0.00 0.01 0.01 99 1018.6
20260510123910 62 344 0.0 2.6 0.00 0.01 0.01 99 1018.6
20260510123409 62 11 0.9 2.6 0.00 0.01 0.01 99 1018.3
20260510122909 63 21 0.9 2.6 0.00 0.01 0.01 98 1018.3
20260510122409 62 32 0.0 2.6 0.00 0.01 0.01 99 1018.3
20260510121910 62 161 0.9 1.7 0.00 0.01 0.01 99 1018.3
20260510121410 61 155 0.0 1.7 0.00 0.01 0.01 99 1017.9
20260510120910 60 113 0.0 2.6 0.00 0.01 0.01 99 1017.9
20260510120410 59 324 0.0 2.6 0.00 0.01 0.01 99 1017.9
20260510115909 59 177 1.7 2.6 0.00 0.01 0.01 99 1017.9
20260510115409 59 169 1.7 2.6 0.00 0.01 0.01 99 1017.6
20260510114910 60 152 1.7 2.6 0.00 0.01 0.01 99 1017.9
20260510114409 59 69 0.0 1.7 0.00 0.01 0.01 99 1017.9
20260510113909 59 37 1.7 1.7 0.00 0.01 0.01 99 1017.9
20260510113410 59 131 0.0 2.6 0.00 0.01 0.01 99 1017.9
20260510112909 59 249 0.9 2.6 0.00 0.01 0.01 99 1017.6
20260510112409 59 54 0.0 1.7 0.00 0.01 0.01 99 1017.6
20260510111909 58 94 0.0 1.7 0.00 0.01 0.01 99 1017.6
20260510111409 58 230 0.9 2.6 0.00 0.01 0.01 99 1017.2
20260510110909 58 203 0.9 2.6 0.00 0.01 0.01 99 1016.8
20260510110409 58 210 0.0 2.6 0.00 0.01 0.01 99 1017.2
20260510105910 59 186 1.7 2.6 0.00 0.01 0.01 99 1016.8
20260510105409 59 155 0.9 2.6 0.01 0.01 0.01 99 1016.8
20260510104909 59 200 0.0 2.6 0.01 0.01 0.01 99 1016.5
20260510104409 59 134 1.7 1.7 0.01 0.01 0.01 99 1016.5
20260510103909 59 120 0.9 2.6 0.00 0.01 0.01 99 1016.8
20260510103410 59 15 0.0 2.6 0.00 0.01 0.01 99 1016.5
20260510102910 59 93 1.7 2.6 0.00 0.01 0.01 99 1016.5
20260510102409 60 152 1.7 3.5 0.00 0.01 0.01 99 1016.1
20260510101909 60 228 0.0 3.5 0.01 0.01 0.01 99 1016.5
20260510101409 60 251 1.7 2.6 0.01 0.01 0.01 99 1016.1
20260510100909 60 177 1.7 2.6 0.01 0.01 0.01 99 1016.1
20260510100410 60 191 0.9 2.6 0.01 0.01 0.01 99 1016.1
20260510095910 60 152 2.6 2.6 0.01 0.01 0.01 99 1016.1
20260510095409 60 250 1.7 3.5 0.00 0.00 0.00 99 1016.1
20260510094909 60 216 0.0 3.5 0.00 0.00 0.00 99 1015.8
20260510094409 60 292 2.6 3.5 0.00 0.00 0.00 99 1016.1
20260510093910 60 324 1.7 4.3 0.00 0.00 0.00 99 1015.8
20260510093409 60 264 2.6 4.3 0.00 0.00 0.00 99 1016.1
20260510092909 60 290 1.7 3.5 0.00 0.00 0.00 99 1016.1
20260510092410 60 201 1.7 3.5 0.00 0.00 0.00 99 1015.8
20260510091910 60 225 1.7 3.5 0.00 0.00 0.00 99 1015.8
20260510091409 60 226 1.7 2.6 0.00 0.00 0.00 99 1015.8
20260510090909 60 227 0.9 3.5 0.00 0.00 0.00 99 1016.1
20260510090409 60 194 1.7 5.2 0.00 0.00 0.00 99 1015.8
20260510085909 60 204 1.7 5.2 0.00 0.00 0.00 99 1015.8
20260510085409 60 230 3.5 4.3 0.00 0.00 0.00 99 1015.8
20260510084910 60 203 2.6 4.3 0.00 0.00 0.00 99 1015.8
20260510084410 60 207 1.7 4.3 0.00 0.00 0.00 99 1015.8
20260510083909 60 203 2.6 4.3 0.00 0.00 0.00 99 1015.4
20260510083410 60 273 1.7 3.5 0.00 0.00 0.00 99 1015.8
20260510082909 60 257 1.7 3.5 0.00 0.00 0.00 99 1015.4
20260510082409 60 146 2.6 4.3 0.00 0.00 0.00 99 1015.8
20260510081909 60 251 1.7 5.2 0.00 0.00 0.00 99 1015.8
20260510081410 60 262 3.5 5.2 0.00 0.00 0.00 99 1015.8
20260510080909 60 303 2.6 5.2 0.00 0.00 0.00 99 1015.4
20260510080409 61 354 0.9 6.1 0.00 0.00 0.00 99 1015.8
20260510075910 61 316 2.6 6.1 0.00 0.00 0.00 99 1015.1
20260510075410 61 264 3.5 4.3 0.00 0.00 0.00 99 1015.4
20260510074910 61 333 2.6 5.2 0.00 0.00 0.00 99 1015.1
20260510074409 61 284 1.7 5.2 0.00 0.00 0.00 99 1015.1
20260510073909 61 245 3.5 5.2 0.00 0.00 0.00 99 1015.1
20260510073410 61 134 0.9 4.3 0.00 0.00 0.00 99 1015.1
20260510072909 61 316 0.9 4.3 0.00 0.00 0.00 99 1015.1
20260510072410 61 291 1.7 6.1 0.00 0.00 0.00 99 1015.1
20260510071909 61 260 2.6 6.1 0.00 0.00 0.00 99 1015.1
20260510071409 61 321 3.5 5.2 0.00 0.00 0.00 99 1015.1
20260510070909 61 256 3.5 5.2 0.00 0.00 0.00 99 1015.4
20260510070409 61 273 2.6 6.1 0.00 0.00 0.00 99 1015.1
20260510065909 61 271 1.7 6.1 0.00 0.00 0.00 99 1015.1
20260510065409 61 84 0.9 6.1 0.00 0.00 0.00 99 1015.4
20260510064909 61 279 2.6 4.3 0.00 0.00 0.00 99 1015.1
20260510064410 61 336 1.7 3.5 0.00 0.00 0.00 98 1015.4
20260510063909 61 283 2.6 5.2 0.00 0.00 0.00 98 1015.1
20260510063409 61 281 2.6 5.2 0.00 0.00 0.00 98 1015.1
20260510062910 61 280 3.5 7.0 0.00 0.00 0.00 98 1015.4
20260510062409 61 252 2.6 8.7 0.00 0.00 0.00 98 1015.4
20260510061909 61 248 5.2 8.7 0.00 0.00 0.00 98 1015.4
20260510061409 61 247 4.3 7.0 0.00 0.00 0.00 97 1015.4
20260510060910 61 221 5.2 7.0 0.00 0.00 0.00 97 1015.4
20260510060409 61 225 2.6 7.0 0.00 0.00 0.00 97 1015.8
20260510055909 61 240 4.3 5.2 0.00 0.00 0.00 96 1015.4
20260510055409 61 220 1.7 4.3 0.00 0.00 0.00 96 1015.4
20260510054910 61 202 2.6 4.3 0.00 0.00 0.00 96 1015.8
20260510054409 61 223 2.6 3.5 0.00 0.00 0.00 95 1015.4
20260510053909 62 196 0.0 2.6 0.00 0.00 0.00 95 1015.4
20260510053409 62 237 0.0 2.6 0.00 0.00 0.00 94 1015.4
20260510052909 62 189 0.9 2.6 0.00 0.00 0.00 93 1015.8
20260510052409 62 244 1.7 2.6 0.00 0.00 0.00 93 1015.8
20260510051909 62 217 0.0 2.6 0.00 0.00 0.00 92 1015.4
20260510051410 63 266 0.9 3.5 0.00 0.00 0.00 93 1015.8
20260510050909 63 282 2.6 3.5 0.00 0.00 0.00 94 1015.4
20260510050409 62 262 2.6 3.5 0.00 0.00 0.00 95 1015.4
20260510045910 62 234 1.7 2.6 0.00 0.00 0.00 95 1015.4
20260510045410 62 216 0.9 1.7 0.00 0.00 0.00 94 1015.4
20260510044909 62 200 0.9 1.7 0.00 0.00 0.00 94 1015.8
20260510044410 62 166 0.0 0.0 0.00 0.00 0.00 93 1015.8
20260510043910 62 333 0.0 0.0 0.00 0.00 0.00 93 1015.8
20260510043409 62 333 0.0 1.7 0.00 0.00 0.00 93 1015.4
20260510042909 62 5 0.0 1.7 0.00 0.00 0.00 93 1015.4
20260510042409 62 331 0.9 1.7 0.00 0.00 0.00 92 1015.8
20260510041909 62 0.0 1.7 0.00 0.00 0.00 92 1015.8
20260510041409 63 300 0.9 2.6 0.00 0.00 0.00 92 1015.8
20260510040909 63 325 0.9 2.6 0.00 0.00 0.00 92 1015.8
20260510040409 63 327 0.9 2.6 0.00 0.00 0.00 93 1015.8
20260510035909 63 299 0.9 1.7 0.00 0.00 0.00 92 1015.8
20260510035409 63 297 0.9 1.7 0.00 0.00 0.00 92 1015.8
20260510034909 63 309 0.9 1.7 0.00 0.00 0.00 92 1015.8
20260510034409 63 263 1.7 2.6 0.00 0.00 0.00 92 1015.8
20260510033909 63 273 0.9 2.6 0.00 0.00 0.00 93 1015.8
20260510033409 64 305 1.7 2.6 0.00 0.00 0.00 92 1016.1
20260510032909 64 295 0.9 3.5 0.00 0.00 0.00 91 1015.8
20260510032409 64 283 0.0 3.5 0.00 0.00 0.00 92 1015.8
20260510031909 64 250 3.5 3.5 0.00 0.00 0.00 92 1015.8
20260510031409 64 273 1.7 3.5 0.00 0.00 0.00 92 1015.8
20260510030909 64 247 2.6 3.5 0.00 0.00 0.00 92 1015.8
20260510030409 64 239 0.9 4.3 0.00 0.00 0.00 92 1015.8
20260510025909 64 269 1.7 4.3 0.00 0.00 0.00 92 1015.8
20260510025409 64 252 3.5 4.3 0.00 0.00 0.00 92 1015.8
20260510024909 64 251 2.6 4.3 0.00 0.00 0.00 92 1015.8
20260510024409 64 252 1.7 3.5 0.00 0.00 0.00 92 1015.8
20260510023909 64 263 2.6 3.5 0.00 0.00 0.00 92 1015.4
20260510023410 65 231 2.6 5.2 0.00 0.00 0.00 92 1015.4
20260510022910 65 246 3.5 5.2 0.00 0.00 0.00 92 1015.4
20260510022409 64 222 5.2 5.2 0.00 0.00 0.00 93 1015.4
20260510021909 64 235 2.6 5.2 0.00 0.00 0.00 93 1015.4
20260510021409 65 170 1.7 6.1 0.00 0.00 0.00 92 1015.1
20260510020910 65 182 2.6 7.0 0.00 0.00 0.00 91 1015.1
20260510020409 65 241 4.3 7.0 0.00 0.00 0.00 91 1015.1
20260510015909 65 213 2.6 6.1 0.00 0.00 0.00 91 1014.7
20260510015409 65 213 3.5 6.1 0.00 0.00 0.00 90 1014.7
20260510014909 65 220 2.6 6.1 0.00 0.00 0.00 90 1014.7
20260510014409 66 212 1.7 7.0 0.00 0.00 0.00 89 1014.7
20260510013909 66 204 2.6 7.0 0.00 0.00 0.00 88 1014.4
20260510013409 66 203 4.3 7.0 0.00 0.00 0.00 86 1014.4
20260510012909 67 199 2.6 7.0 0.00 0.00 0.00 85 1014.0
20260510012409 67 231 4.3 4.3 0.00 0.00 0.00 86 1014.0
20260510011909 67 197 2.6 4.3 0.00 0.00 0.00 85 1013.7
20260510011409 68 195 2.6 4.3 0.00 0.00 0.00 82 1013.7
20260510010909 68 192 1.7 3.5 0.00 0.00 0.00 81 1013.7
20260510010409 68 233 2.6 3.5 0.00 0.00 0.00 82 1013.7
20260510005909 69 199 1.7 2.6 0.00 0.00 0.00 81 1013.7
20260510005410 69 204 2.6 3.5 0.00 0.00 0.00 79 1013.3
20260510004910 69 212 0.9 3.5 0.00 0.00 0.00 77 1013.3
20260510004410 70 208 1.7 3.5 0.00 0.00 0.00 78 1013.3
20260510003910 70 203 0.9 4.3 0.00 0.00 0.00 77 1013.3
20260510003409 70 220 2.6 4.3 0.00 0.00 0.00 76 1013.3
20260510002910 71 214 1.7 3.5 0.00 0.00 0.00 75 1013.3
20260510002410 71 214 1.7 3.5 0.00 0.00 0.00 75 1013.0
20260510001909 71 235 1.7 4.3 0.00 0.00 0.00 74 1013.3
20260510001409 71 218 2.6 4.3 0.00 0.00 0.00 74 1013.0
20260510000909 71 239 3.5 4.3 0.00 0.00 0.00 71 1013.0
20260510000411 72 229 1.7 4.3 0.00 0.00 0.00 72 1013.0
20260509235909 72 249 2.6 4.3 0.00 0.00 0.00 71 1013.0
20260509235409 71 218 3.5 4.3 0.00 0.00 0.00 72 1013.3
20260509234909 72 255 2.6 4.3 0.00 0.00 0.00 72 1013.0
20260509234409 72 251 1.7 4.3 0.00 0.00 0.00 71 1013.0
20260509233909 71 231 1.7 4.3 0.00 0.00 0.00 70 1013.0
20260509233409 71 197 1.7 3.5 0.00 0.00 0.00 73 1013.0
20260509232909 72 219 3.5 3.5 0.00 0.00 0.00 71 1013.0
20260509232409 71 313 1.7 3.5 0.00 0.00 0.00 69 1013.0
20260509231909 72 258 2.6 3.5 0.00 0.00 0.00 70 1013.0
20260509231409 72 279 3.5 3.5 0.00 0.00 0.00 69 1012.6
20260509230910 72 26 0.9 2.6 0.00 0.00 0.00 68 1013.0
20260509230410 72 50 0.0 2.6 0.00 0.00 0.00 69 1012.6
20260509225909 72 324 1.7 3.5 0.00 0.00 0.00 70 1013.0
20260509225409 71 7 2.6 5.2 0.00 0.00 0.00 70 1013.0
20260509224910 71 310 2.6 5.2 0.00 0.00 0.00 69 1013.0
20260509224409 72 325 3.5 4.3 0.00 0.00 0.00 68 1013.0
20260509223909 72 290 3.5 4.3 0.00 0.00 0.00 68 1013.0
20260509223409 72 319 2.6 4.3 0.00 0.00 0.00 67 1012.6
20260509222910 72 324 2.6 4.3 0.00 0.00 0.00 69 1012.6
20260509222409 72 346 2.6 4.3 0.00 0.00 0.00 68 1012.6
20260509221909 72 344 2.6 5.2 0.00 0.00 0.00 67 1012.6
20260509221409 72 351 3.5 6.1 0.00 0.00 0.00 67 1012.6
20260509220909 72 350 1.7 7.0 0.00 0.00 0.00 67 1012.3
20260509220409 72 310 1.7 7.0 0.00 0.00 0.00 66 1012.6
20260509215909 72 314 6.1 7.0 0.00 0.00 0.00 66 1012.6
20260509215409 73 351 5.2 7.0 0.00 0.00 0.00 66 1012.6
20260509214909 72 334 1.7 7.8 0.00 0.00 0.00 67 1012.6
20260509214409 72 321 4.3 7.8 0.00 0.00 0.00 66 1012.3
20260509213909 72 344 6.1 8.7 0.00 0.00 0.00 66 1012.3
20260509213409 72 336 5.2 8.7 0.00 0.00 0.00 66 1012.3
20260509212909 73 336 4.3 7.0 0.00 0.00 0.00 66 1012.6
20260509212409 73 341 4.3 7.8 0.00 0.00 0.00 65 1012.6
20260509211909 73 352 4.3 8.7 0.00 0.00 0.00 65 1012.6
20260509211409 73 343 7.8 8.7 0.00 0.00 0.00 64 1012.6
20260509210910 72 272 3.5 8.7 0.00 0.00 0.00 66 1012.6
20260509210409 72 336 7.0 8.7 0.00 0.00 0.00 67 1012.6
20260509205909 72 299 7.0 8.7 0.00 0.00 0.00 66 1012.6
20260509205409 72 3 2.6 8.7 0.00 0.00 0.00 69 1012.6
20260509204909 72 308 4.3 10.4 0.00 0.00 0.00 68 1012.3
20260509204409 72 327 6.1 10.4 0.00 0.00 0.00 67 1012.6
20260509203909 72 351 4.3 8.7 0.00 0.00 0.00 67 1012.6
20260509203409 72 340 6.1 8.7 0.00 0.00 0.00 65 1013.0
20260509202909 72 316 2.6 7.8 0.00 0.00 0.00 65 1013.0
20260509202409 73 335 2.6 9.6 0.00 0.00 0.00 65 1012.6
20260509201909 72 16 3.5 10.4 0.00 0.00 0.00 66 1013.0
20260509201409 72 328 7.8 10.4 0.00 0.00 0.00 64 1013.0
20260509200909 72 343 6.1 9.6 0.00 0.00 0.00 65 1013.3
20260509200409 72 306 4.3 9.6 0.00 0.00 0.00 65 1013.0
20260509195909 72 318 6.1 9.6 0.00 0.00 0.00 64 1013.0
20260509195409 72 319 5.2 9.6 0.00 0.00 0.00 65 1013.3
20260509194909 72 293 4.3 9.6 0.00 0.00 0.00 64 1013.3
20260509194409 71 247 5.2 9.6 0.00 0.00 0.00 66 1013.3
20260509193909 71 210 3.5 9.6 0.00 0.00 0.00 67 1013.3
20260509193409 71 258 6.1 9.6 0.00 0.00 0.00 66 1013.3
20260509192909 71 331 4.3 10.4 0.00 0.00 0.00 67 1013.3
20260509192409 71 272 5.2 10.4 0.00 0.00 0.00 64 1013.3
20260509191909 71 290 9.6 10.4 0.00 0.00 0.00 66 1013.3
20260509191409 70 288 6.1 8.7 0.00 0.00 0.00 69 1013.0
20260509190909 70 313 7.0 8.7 0.00 0.00 0.00 69 1013.0
20260509190409 70 317 6.1 9.6 0.00 0.00 0.00 69 1013.0
20260509185909 71 323 4.3 9.6 0.00 0.00 0.00 67 1013.0
20260509185409 70 223 4.3 9.6 0.00 0.00 0.00 69 1013.3
20260509184909 70 257 5.2 10.4 0.00 0.00 0.00 67 1013.3
20260509184409 70 252 4.3 10.4 0.00 0.00 0.00 69 1013.3
20260509183909 70 250 7.0 10.4 0.00 0.00 0.00 68 1013.3
20260509183409 70 295 7.0 10.4 0.00 0.00 0.00 69 1013.3
20260509182909 71 238 7.8 9.6 0.00 0.00 0.00 69 1013.3
20260509182409 70 217 2.6 9.6 0.00 0.00 0.00 70 1013.3
20260509181909 70 239 6.1 9.6 0.00 0.00 0.00 71 1013.3
20260509181409 70 232 5.2 8.7 0.00 0.00 0.00 70 1013.3
20260509180909 71 237 7.8 9.6 0.00 0.00 0.00 69 1013.7
20260509180409 70 276 7.0 9.6 0.00 0.00 0.00 69 1013.7
20260509175909 70 284 5.2 11.3 0.00 0.00 0.00 71 1013.7
20260509175410 70 229 8.7 12.2 0.00 0.00 0.00 69 1013.7
20260509174909 70 246 5.2 12.2 0.00 0.00 0.00 69 1014.0
20260509174409 69 264 3.5 11.3 0.00 0.00 0.00 72 1013.7
20260509173909 69 222 7.0 12.2 0.00 0.00 0.00 70 1013.7
20260509173409 69 269 7.8 12.2 0.00 0.00 0.00 71 1014.0
20260509172909 70 276 7.0 10.4 0.00 0.00 0.00 70 1014.0
20260509172409 69 228 4.3 10.4 0.00 0.00 0.00 70 1013.3
20260509171909 69 296 7.0 11.3 0.00 0.00 0.00 71 1013.7
20260509171409 69 301 4.3 11.3 0.00 0.00 0.00 73 1013.7
20260509170909 69 247 6.1 13.0 0.00 0.00 0.00 71 1013.7
20260509170409 69 264 7.0 13.0 0.00 0.00 0.00 70 1014.0
20260509165909 69 269 7.0 11.3 0.00 0.00 0.00 71 1013.7
20260509165409 68 200 3.5 11.3 0.00 0.00 0.00 71 1013.7
20260509164909 69 246 6.1 11.3 0.00 0.00 0.00 72 1013.7
20260509164409 69 246 7.8 8.7 0.00 0.00 0.00 71 1013.7